Showing default

SHARJAHSAT-2, 68444

Orbit data source: Space-Track

SHARJAHSAT-2, 68444 is a payload satellite owned by Sharjah SAAST (AE) in SSO that was launched on Mon, 30 Mar 2026 UTC via an FALCON 9 launch vehicle from the Air Force Western Test Range (AFWTR). Payload-class satellites include a variety of spacecraft equipped with specific instruments for various scientific and technological missions. These include communications satellites like Starlink; space stations such as the ISS; scientific satellites like the Hubble; Earth observation satellites from companies like Planet Labs, Umbra, and HawkEye 360; GPS; miniature CubeSats for education and research; and military/defense satellites.

Loading next visibility...
Identifier
68444, 2026-067AE
Orbit
SSO
Country
Flag of AEAE / UAE
Related business
Manufacturer
Sharjah SAAST
Mission
Operational Amateur Technology
Bus & Motor
CUBESAT 6U, Unknown motor
Mass
~10 kg wet, ~10 kg dry
Launch date (UTC)
2026-03-30 (4 months ago)
Launch vehicle
FALCON 9
Launch site
Air Force Western Test Range (AFWTR)
Object type
Payload
Rocket body
Debris
Shape & HBR
Box, 0.1 m
Radar Cross Section
0.035 m², Medium (>0.1 m² and < 1m²)

Expand to show TLE details & history
Last TLE update: 5 hours ago

TLE from 5 hours ago
0 SHARJAHSAT-2
1 68444U 26067AE  26221.86621466  .00003451  00000-0  16581-3 0  9996
2 68444  97.4605 179.7453 0003024 119.8507 240.3028 15.19499015 20099
Epoch: 2026-08-09T20:47Z
TLE epoch observation values (Epoch: 2026-08-09T20:47:20.946Z)
Latitude
-0.00009°
Longitude
-90.44903°
Altitude
511.474 km
Speed
7.608 km/s
True Right ascension
11h 58m 58s
True Declination
0° 00' 00"
Sunlit
Object was in daylight at epoch
Visualization orbit readout
Latitude
Unknown
Longitude
Unknown
Altitude
Unknown
Speed
Unknown
Apparent Right ascension
Unknown
Apparent Declination
Unknown
Sunlit
N/A
Visualization observer readout
Local Sidereal Time
16:19:52
Azimuth
Unknown
Elevation
Unknown
Doppler factor
Unknown
Orbital elements
Apogee altitude
506.404 km
Perigee altitude
502.241 km
Semi-major axis
6,882.459 km
Eccentricity
0.0003
Inclination
97.4605°
RAAN
179.7453°
Arg. of periapsis
119.8507°
True anomaly
240.2727°
Mean anomaly
240.3028°
Eccentric anomaly
240.28775°
Mean motion
3.80126 °/min
Orbital period
94.71 mins
BSTAR
0.00016581
Loading maneuver chart data...
Computing Atmospheric mass density...
Loading historical data...
Loading historical data...
Loading historical data...
Loading historical data...
Loading historical data...
Loading historical data...
Loading historical data...

Documentation

Showing up to 5 results
|